CCA1429 ZBAA-ZUCK

Flight info

Callsign CCA1429
Flight time N/A
Altitude 32100
Route BOTPU7X BOTPU W47 LOVRA W276 AVDIG W666 VINEX VINEX2H
Aircraft A320/M-SDE3FGHIRWY/LB1

Departure

Time 2026-05-06 17:38
Airport Beijing Capital International Airport (ZBAA)

Arrival

Time N/A
Airport Chongqing Jiangbei International Airport (ZUCK)
Time Latitude Longitude Altitude Speed Heading
2026-05-06 17:11 40.06581 116.60628 118 ft 0 kts 84°
2026-05-06 17:27 40.06580 116.60624 118 ft 2 kts 84°
2026-05-06 17:27 40.06578 116.60605 118 ft 2 kts 84°
2026-05-06 17:27 40.06577 116.60585 118 ft 2 kts 84°
2026-05-06 17:28 40.06575 116.60566 118 ft 2 kts 84°
2026-05-06 17:28 40.06573 116.60547 118 ft 2 kts 84°
2026-05-06 17:28 40.06574 116.60527 118 ft 2 kts 103°
2026-05-06 17:28 40.06578 116.60509 118 ft 2 kts 116°
2026-05-06 17:29 40.06586 116.60492 118 ft 2 kts 130°
2026-05-06 17:29 40.06597 116.60478 118 ft 2 kts 144°
2026-05-06 17:29 40.06610 116.60469 118 ft 2 kts 159°
2026-05-06 17:29 40.06622 116.60464 118 ft 0 kts 171°
2026-05-06 17:30 40.06629 116.60463 118 ft 0 kts 173°
2026-05-06 17:32 40.06627 116.60463 118 ft 1 kts 173°
2026-05-06 17:32 40.06611 116.60465 118 ft 3 kts 173°
2026-05-06 17:32 40.06575 116.60471 118 ft 7 kts 173°
2026-05-06 17:32 40.06510 116.60482 118 ft 11 kts 173°
2026-05-06 17:33 40.06419 116.60497 118 ft 14 kts 173°
2026-05-06 17:33 40.06304 116.60514 118 ft 17 kts 173°
2026-05-06 17:33 40.06175 116.60533 118 ft 19 kts 174°
2026-05-06 17:33 40.06037 116.60557 118 ft 20 kts 172°
2026-05-06 17:34 40.05889 116.60580 118 ft 21 kts 174°
2026-05-06 17:34 40.05774 116.60585 118 ft 11 kts 207°
2026-05-06 17:34 40.05745 116.60490 118 ft 12 kts 263°
2026-05-06 17:34 40.05736 116.60380 118 ft 12 kts 264°
2026-05-06 17:35 40.05721 116.60264 118 ft 11 kts 243°
2026-05-06 17:35 40.05651 116.60236 118 ft 11 kts 175°
2026-05-06 17:35 40.05566 116.60241 118 ft 9 kts 197°
2026-05-06 17:36 40.05548 116.60075 118 ft 11 kts 303°
2026-05-06 17:36 40.05606 116.60009 118 ft 11 kts 345°
2026-05-06 17:36 40.05630 116.60004 118 ft 0 kts 353°
2026-05-06 17:37 40.05637 116.60004 118 ft 3 kts 353°
2026-05-06 17:37 40.05771 116.59985 118 ft 47 kts 354°
2026-05-06 17:37 40.06350 116.59891 119 ft 117 kts 353°
2026-05-06 17:38 40.07361 116.59731 235 ft 161 kts 353°
2026-05-06 17:38 40.08444 116.59572 953 ft 159 kts 352°
2026-05-06 17:38 40.09503 116.59425 1836 ft 153 kts 351°
2026-05-06 17:38 40.10571 116.59265 2479 ft 162 kts 350°
2026-05-06 17:39 40.11729 116.59081 2998 ft 178 kts 350°
2026-05-06 17:39 40.13029 116.58872 3415 ft 200 kts 351°
2026-05-06 17:39 40.14472 116.58640 3937 ft 218 kts 351°
2026-05-06 17:39 40.16025 116.58394 4551 ft 232 kts 351°
2026-05-06 17:40 40.17613 116.58144 5478 ft 233 kts 351°
2026-05-06 17:40 40.19217 116.57893 6442 ft 233 kts 351°
2026-05-06 17:40 40.20813 116.57642 7324 ft 235 kts 350°
2026-05-06 17:40 40.22443 116.57386 8048 ft 243 kts 349°